Location: Newark
(45.8667°N, 9.7333°E)
Time: 14:58:19
(UTC+00:00)

Transit 4A - Pass Details

Date: 31 January 2020
Orbit: 872 x 973 km, 66.8° (Epoch: 22 February)

Event Time Altitude Azimuth Distance (km) Brightness Sun altitude
Rises 12:26:59 0° 329° (NNW) 3,473 10.5 25.6°
Reaches altitude 10° 12:29:34 10° 335° (NNW) 2,530 9.8 25.5°
Maximum altitude 12:35:13 49° 50° (NE) 1,118 8.3 25.2°
Drops below altitude 10° 12:40:53 10° 125° (SE) 2,538 10.5 24.9°
Sets 12:43:28 0° 131° (SE) 3,485 11.2 24.8°
